Weather History for KAXH - November, 2012

Change the Weather History Date:

Thursday, November 8, 2012

  Actual Average (KHOU) Record (KHOU)
Temperature  
Mean Temperature 68 °F 65 °F  
Max Temperature 85 °F 75 °F 89 °F (1989)
Min Temperature 50 °F 55 °F 34 °F (1991)
Degree Days  
Heating Degree Days 0 4  
Month to date heating degree days 24  
Since 1 July heating degree days 54  
Cooling Degree Days 2    
Growing Degree Days 18 (Base 50)    
Moisture  
Dew Point 54 °F    
Average Humidity 69    
Maximum Humidity 97    
Minimum Humidity 33    
Precipitation  
Precipitation 0.00 in 0.15 in 1.47 in (1990)
Month to date precipitation 1.21  
Year to date precipitation 42.90  
Sea Level Pressure  
Sea Level Pressure 30.13 in    
Wind  
Wind Speed 3 mph (SE)    
Max Wind Speed 14 mph    
Max Gust Speed 20 mph    
Visibility 8 miles    
Events      
T = Trace of Precipitation, MM = Missing Value Source: NWS Daily Summary

Daily Weather History Graph

Daily Weather History Graph

Search for Another Location

Airport or City:

Trip Planner

Search our weather history database for the weather conditions in past years. The results will help you decide how hot, cold, wet, or windy it might be!

Date:

Astronomy

Nov. 08, 2012 Rise Set
Actual Time 6:40 AM CST 5:30 PM CST
Civil Twilight 6:15 AM CST 5:55 PM CST
Nautical Twilight 5:47 AM CST 6:23 PM CST
Astronomical Twilight 5:19 AM CST 6:51 PM CST
Moon 1:02 AM CST (11/8) 1:48 PM CST (11/8)
Length of Visible Light 11h 39m
Length of Day
10h 49m
Waning Crescent, 32% of the Moon is Illuminated
Nov 8
Waning Crescent
Nov 13
New
Nov 20
First Quarter
Nov 28
Full
Dec 6
Last Quarter

Hourly Weather History & Observations

Time (CST) Temp. Heat Index Dew Point Humidity Pressure Visibility Wind Dir Wind Speed Gust Speed Precip Events Conditions
12:15 AM 52.2 °F - 45.0 °F 76% 30.13 in 10.0 mi Calm Calm - N/A   Clear
12:35 AM 52.3 °F - 46.8 °F 81% 30.13 in 7.0 mi Calm Calm - N/A   Clear
12:55 AM 51.8 °F - 44.4 °F 76% 30.12 in 7.0 mi Calm Calm - N/A   Clear
1:15 AM 51.8 °F - 43.5 °F 73% 30.12 in 7.0 mi Calm Calm - N/A   Clear
1:35 AM 51.3 °F - 43.2 °F 74% 30.12 in 10.0 mi Calm Calm - N/A   Clear
1:55 AM 51.3 °F - 44.2 °F 77% 30.12 in 1.5 mi Calm Calm - N/A   Haze
2:15 AM 50.5 °F - 43.5 °F 77% 30.12 in 5.0 mi Calm Calm - N/A   Haze
2:35 AM 52.0 °F - 48.7 °F 89% 30.12 in 10.0 mi East 3.5 mph - N/A   Clear
2:55 AM 54.1 °F - 52.2 °F 93% 30.11 in 10.0 mi East 3.5 mph - N/A   Clear
3:15 AM 54.3 °F - 52.3 °F 93% 30.11 in 10.0 mi Calm Calm - N/A   Clear
3:35 AM 53.6 °F - 51.8 °F 94% 30.11 in 7.0 mi Calm Calm - N/A   Clear
3:55 AM 52.2 °F - 50.2 °F 93% 30.11 in 5.0 mi Calm Calm - N/A   Clear
4:15 AM 51.8 °F - 50.0 °F 94% 30.12 in 5.0 mi Calm Calm - N/A   Clear
4:35 AM 50.4 °F - 48.6 °F 94% 30.12 in 4.0 mi Calm Calm - N/A   Clear
4:55 AM 50.5 °F - 49.1 °F 95% 30.13 in 5.0 mi Calm Calm - N/A   Clear
5:15 AM 50.9 °F - 49.1 °F 94% 30.13 in 4.0 mi Calm Calm - N/A   Clear
5:55 AM 51.8 °F - 50.4 °F 95% 30.14 in 3.0 mi Calm Calm - N/A   Clear
6:15 AM 51.8 °F - 50.2 °F 94% 30.14 in 3.0 mi Calm Calm - N/A   Clear
6:55 AM 52.7 °F - 51.4 °F 95% 30.15 in 1.8 mi Calm Calm - N/A   Mist
7:15 AM 54.7 °F - 53.6 °F 96% 30.16 in 1.8 mi Calm Calm - N/A   Mist
7:35 AM 58.6 °F - 57.7 °F 97% 30.16 in 2.5 mi East 3.5 mph - N/A   Clear
7:55 AM 61.9 °F - 59.9 °F 93% 30.17 in 4.0 mi Calm Calm - N/A   Clear
8:15 AM 64.8 °F - 61.9 °F 90% 30.18 in 5.0 mi ESE 5.8 mph - N/A   Clear
8:35 AM 68.0 °F - 64.2 °F 88% 30.18 in 7.0 mi ESE 4.6 mph - N/A   Clear
8:55 AM 71.6 °F - 62.4 °F 73% 30.19 in 10.0 mi ESE 5.8 mph - N/A   Clear
9:15 AM 74.5 °F - 59.9 °F 60% 30.19 in 10.0 mi SE 9.2 mph - N/A   Clear
9:35 AM 76.3 °F - 59.0 °F 55% 30.19 in 10.0 mi SE 8.1 mph - N/A   Clear
9:55 AM 77.9 °F - 57.4 °F 49% 30.19 in 10.0 mi SE 10.4 mph - N/A   Clear
10:35 AM 80.4 °F 80.5 °F 55.9 °F 43% 30.18 in 10.0 mi SE 6.9 mph - N/A   Clear
10:55 AM 81.5 °F 80.8 °F 53.8 °F 38% 30.17 in 10.0 mi SE 11.5 mph 18.4 mph N/A   Clear
11:15 AM 82.4 °F 81.4 °F 53.8 °F 37% 30.17 in 10.0 mi SSE 4.6 mph - N/A   Clear
11:35 AM 83.3 °F 82.1 °F 53.6 °F 36% 30.16 in 10.0 mi SE 5.8 mph - N/A   Clear
11:55 AM 84.0 °F 82.6 °F 53.2 °F 35% 30.15 in 10.0 mi SE 8.1 mph 16.1 mph N/A   Clear
12:15 PM 84.2 °F - 52.7 °F 34% 30.14 in 10.0 mi SSE 10.4 mph - N/A   Clear
12:35 PM 85.1 °F 83.3 °F 53.2 °F 33% 30.13 in 10.0 mi SE 10.4 mph - N/A   Clear
12:55 PM 84.6 °F - 52.7 °F 33% 30.12 in 10.0 mi SSE 8.1 mph 16.1 mph N/A   Clear
1:15 PM 85.6 °F 83.8 °F 53.1 °F 33% 30.11 in 10.0 mi SE 6.9 mph - N/A   Clear
1:35 PM 84.9 °F 83.2 °F 53.1 °F 33% 30.10 in 10.0 mi SSE 10.4 mph 18.4 mph N/A   Clear
1:55 PM 84.2 °F 82.8 °F 53.4 °F 35% 30.10 in 10.0 mi SSE 11.5 mph 16.1 mph N/A   Clear
2:15 PM 83.7 °F - 52.9 °F 34% 30.09 in 10.0 mi SSE 11.5 mph 18.4 mph N/A   Clear
2:35 PM 83.3 °F - 52.9 °F 35% 30.09 in 10.0 mi SSE 12.7 mph 19.6 mph N/A   Clear
2:55 PM 82.8 °F 81.6 °F 53.1 °F 36% 30.09 in 10.0 mi SSE 10.4 mph - N/A   Clear
3:15 PM 82.0 °F 81.2 °F 53.4 °F 37% 30.09 in 10.0 mi SSE 13.8 mph 19.6 mph N/A   Clear
3:35 PM 81.0 °F 80.5 °F 54.1 °F 39% 30.09 in 10.0 mi SE 9.2 mph 18.4 mph N/A   Clear
3:55 PM 79.9 °F - 55.4 °F 43% 30.09 in 10.0 mi SE 11.5 mph 17.3 mph N/A   Clear
4:15 PM 78.8 °F - 55.6 °F 45% 30.09 in 10.0 mi SE 11.5 mph 17.3 mph N/A   Clear
4:35 PM 77.0 °F - 56.3 °F 49% 30.09 in 10.0 mi SE 12.7 mph 16.1 mph N/A   Clear
4:55 PM 74.8 °F - 56.8 °F 53% 30.09 in 10.0 mi SSE 8.1 mph 16.1 mph N/A   Clear
5:15 PM 73.2 °F - 57.2 °F 57% 30.09 in 10.0 mi SE 8.1 mph - N/A   Clear
5:35 PM 71.6 °F - 57.2 °F 60% 30.10 in 10.0 mi SE 5.8 mph - N/A   Clear
5:55 PM 69.8 °F - 58.1 °F 66% 30.10 in 10.0 mi SE 5.8 mph - N/A   Clear
6:15 PM 68.9 °F - 58.3 °F 69% 30.11 in 10.0 mi SE 5.8 mph - N/A   Clear
6:35 PM 68.0 °F - 58.5 °F 71% 30.11 in 10.0 mi ESE 5.8 mph - N/A   Clear
6:55 PM 67.3 °F - 58.5 °F 73% 30.11 in 10.0 mi ESE 5.8 mph - N/A   Clear
7:15 PM 66.4 °F - 58.3 °F 75% 30.11 in 10.0 mi SE 5.8 mph - N/A   Clear
7:35 PM 65.5 °F - 57.6 °F 76% 30.12 in 10.0 mi Calm Calm - N/A   Clear
7:55 PM 64.6 °F - 57.6 °F 78% 30.12 in 10.0 mi SE 3.5 mph - N/A   Clear
8:15 PM 63.9 °F - 57.2 °F 79% 30.12 in 10.0 mi SE 3.5 mph - N/A   Clear
8:35 PM 62.8 °F - 56.5 °F 80% 30.13 in 10.0 mi Calm Calm - N/A   Clear
8:55 PM 61.5 °F - 55.0 °F 79% 30.13 in 10.0 mi Calm Calm - N/A   Clear
9:15 PM 60.8 °F - 55.4 °F 82% 30.12 in 10.0 mi SE 3.5 mph - N/A   Clear
9:35 PM 60.6 °F - 55.9 °F 85% 30.12 in 10.0 mi Calm Calm - N/A   Clear
9:55 PM 59.9 °F - 55.0 °F 84% 30.13 in 10.0 mi Calm Calm - N/A   Clear
10:15 PM 60.1 °F - 55.4 °F 85% 30.12 in 10.0 mi Calm Calm - N/A   Clear
10:35 PM 59.4 °F - 54.7 °F 84% 30.12 in 10.0 mi Calm Calm - N/A   Clear
10:55 PM 60.1 °F - 55.0 °F 83% 30.12 in 10.0 mi Calm Calm - N/A   Clear
11:15 PM 59.4 °F - 54.5 °F 84% 30.11 in 10.0 mi Calm Calm - N/A   Clear
11:35 PM 58.8 °F - 53.8 °F 83% 30.11 in 10.0 mi Calm Calm - N/A   Clear
11:55 PM 58.1 °F - 53.8 °F 86% 30.11 in 10.0 mi Calm Calm - N/A   Clear